| time (UTC) | temp C | wind direction | speed KPH | gust KPH | rain 1hr cm | rain 24hr cm | rain mn cm | humidity % | barometer mb |
| 20260901062146 | 22 | 189 | 1.6 | 3.2 | 0.00 | 0.00 | 0.00 | 96 | 1016.9 |
| 20260901061116 | 22 | 197 | 1.6 | 1.6 | 0.00 | 0.00 | 0.00 | 96 | 1016.9 |
| 20260901060554 | 22 | 193 | 0.0 | 1.6 | 0.00 | 0.00 | 0.00 | 97 | 1017.0 |
| 20260901055525 | 22 | 232 | 3.2 | 4.8 | 0.00 | 0.00 | 0.00 | 97 | 1017.2 |
| 20260901054455 | 22 | 167 | 1.6 | 3.2 | 0.00 | 0.00 | 0.00 | 97 | 1017.1 |
| 20260901053434 | 22 | 196 | 1.6 | 3.2 | 0.00 | 0.00 | 0.00 | 97 | 1017.3 |
| 20260901052405 | 22 | 185 | 0.0 | 1.6 | 0.00 | 0.00 | 0.00 | 97 | 1017.2 |
| 20260901051337 | 22 | 176 | 1.6 | 3.2 | 0.00 | 0.00 | 0.00 | 96 | 1017.3 |
| 20260901050308 | 22 | 190 | 1.6 | 1.6 | 0.00 | 0.00 | 0.00 | 96 | 1017.6 |
| 20260901045246 | 22 | 0.0 | 1.6 | 0.00 | 0.00 | 0.00 | 95 | 1017.7 | |
| 20260901044237 | 22 | 180 | 3.2 | 4.8 | 0.00 | 0.00 | 0.00 | 95 | 1017.7 |
| 20260901043156 | 22 | 174 | 0.0 | 1.6 | 0.00 | 0.00 | 0.00 | 94 | 1018.0 |
| 20260901042127 | 22 | 0.0 | 0.0 | 0.00 | 0.00 | 0.00 | 94 | 1017.9 | |
| 20260901041604 | 22 | 0.0 | 0.0 | 0.00 | 0.00 | 0.00 | 94 | 1017.9 | |
| 20260901040534 | 22 | 0.0 | 1.6 | 0.00 | 0.00 | 0.00 | 93 | 1018.0 | |
| 20260901035505 | 22 | 0.0 | 0.0 | 0.00 | 0.00 | 0.00 | 92 | 1018.1 | |
| 20260901034436 | 22 | 0.0 | 0.0 | 0.00 | 0.00 | 0.00 | 93 | 1017.9 | |
| 20260901033411 | 22 | 0.0 | 0.0 | 0.00 | 0.00 | 0.00 | 92 | 1017.9 | |
| 20260901032346 | 22 | 0.0 | 0.0 | 0.00 | 0.00 | 0.00 | 92 | 1018.1 | |
| 20260901031321 | 21 | 0.0 | 0.0 | 0.00 | 0.00 | 0.00 | 90 | 1018.3 | |
| 20260901030312 | 21 | 0.0 | 0.0 | 0.00 | 0.00 | 0.00 | 89 | 1018.4 | |
| 20260901025226 | 22 | 0.0 | 0.0 | 0.00 | 0.00 | 0.00 | 89 | 1018.1 | |
| 20260901024157 | 22 | 0.0 | 0.0 | 0.00 | 0.00 | 0.00 | 88 | 1018.0 | |
| 20260901023639 | 22 | 0.0 | 0.0 | 0.00 | 0.00 | 0.00 | 89 | 1018.4 | |
| 20260901022610 | 22 | 0.0 | 0.0 | 0.00 | 0.00 | 0.00 | 89 | 1018.1 | |
| 20260901021545 | 22 | 0.0 | 0.0 | 0.00 | 0.00 | 0.00 | 87 | 1018.3 | |
| 20260901020540 | 22 | 0.0 | 0.0 | 0.00 | 0.00 | 0.00 | 87 | 1018.3 | |
| 20260901015451 | 22 | 0.0 | 0.0 | 0.00 | 0.00 | 0.00 | 88 | 1018.2 | |
| 20260901014426 | 22 | 0.0 | 0.0 | 0.00 | 0.00 | 0.00 | 87 | 1018.3 | |
| 20260901013401 | 22 | 0.0 | 0.0 | 0.00 | 0.00 | 0.00 | 88 | 1018.2 | |
| 20260901012336 | 22 | 0.0 | 0.0 | 0.00 | 0.00 | 0.00 | 86 | 1018.3 | |
| 20260901011311 | 22 | 0.0 | 0.0 | 0.00 | 0.00 | 0.00 | 87 | 1018.2 | |
| 20260901010242 | 23 | 0.0 | 0.0 | 0.00 | 0.00 | 0.00 | 84 | 1018.1 | |
| 20260901005233 | 23 | 0.0 | 0.0 | 0.00 | 0.00 | 0.00 | 84 | 1018.1 | |
| 20260901004228 | 23 | 0.0 | 0.0 | 0.00 | 0.00 | 0.00 | 84 | 1018.2 | |
| 20260901003626 | 23 | 0.0 | 0.0 | 0.00 | 0.00 | 0.00 | 83 | 1018.1 | |
| 20260901002601 | 23 | 0.0 | 0.0 | 0.00 | 0.00 | 0.00 | 84 | 1017.9 | |
| 20260901001536 | 23 | 0.0 | 0.0 | 0.00 | 0.00 | 0.00 | 88 | 1017.8 | |
| 20260901000506 | 23 | 0.0 | 0.0 | 0.00 | 0.00 | 0.00 | 86 | 1017.6 | |
| 20260831235457 | 23 | 0.0 | 0.0 | 0.00 | 0.00 | 0.00 | 85 | 1017.8 | |
| 20260831234428 | 23 | 0.0 | 0.0 | 0.00 | 0.00 | 0.00 | 83 | 1017.8 | |
| 20260831233339 | 24 | 169 | 0.0 | 1.6 | 0.00 | 0.00 | 0.00 | 80 | 1017.9 |
| 20260831232310 | 25 | 0.0 | 0.0 | 0.00 | 0.00 | 0.00 | 78 | 1018.0 | |
| 20260831231245 | 25 | 0.0 | 1.6 | 0.00 | 0.00 | 0.00 | 77 | 1017.9 | |
| 20260831230215 | 25 | 184 | 0.0 | 3.2 | 0.00 | 0.00 | 0.00 | 74 | 1018.2 |
| 20260831225720 | 25 | 182 | 1.6 | 3.2 | 0.00 | 0.00 | 0.00 | 74 | 1018.3 |
| 20260831224651 | 25 | 187 | 1.6 | 3.2 | 0.00 | 0.00 | 0.00 | 73 | 1018.5 |
| 20260831223602 | 25 | 0.0 | 1.6 | 0.00 | 0.00 | 0.00 | 75 | 1018.0 | |
| 20260831222557 | 25 | 178 | 1.6 | 3.2 | 0.00 | 0.00 | 0.00 | 73 | 1018.2 |
| 20260831221508 | 26 | 160 | 3.2 | 3.2 | 0.00 | 0.00 | 0.00 | 72 | 1018.3 |
| 20260831220439 | 25 | 175 | 1.6 | 3.2 | 0.00 | 0.00 | 0.00 | 73 | 1018.8 |
| 20260831215409 | 25 | 0.0 | 0.0 | 0.00 | 0.00 | 0.00 | 75 | 1018.7 | |
| 20260831214345 | 25 | 148 | 0.0 | 1.6 | 0.00 | 0.00 | 0.00 | 75 | 1018.7 |
| 20260831213319 | 25 | 0.0 | 1.6 | 0.00 | 0.00 | 0.00 | 76 | 1018.8 | |
| 20260831212255 | 25 | 193 | 3.2 | 3.2 | 0.00 | 0.00 | 0.00 | 76 | 1018.8 |
| 20260831211226 | 24 | 116 | 0.0 | 4.8 | 0.00 | 0.00 | 0.00 | 78 | 1018.9 |
| 20260831210201 | 24 | 101 | 1.6 | 1.6 | 0.00 | 0.00 | 0.00 | 77 | 1018.8 |
| 20260831205131 | 24 | 0.0 | 1.6 | 0.00 | 0.00 | 0.00 | 76 | 1018.6 | |
| 20260831204126 | 25 | 193 | 3.2 | 4.8 | 0.00 | 0.00 | 0.00 | 75 | 1019.0 |
| 20260831203053 | 25 | 151 | 1.6 | 3.2 | 0.00 | 0.00 | 0.00 | 75 | 1018.9 |
| 20260831202002 | 25 | 244 | 3.2 | 4.8 | 0.00 | 0.00 | 0.00 | 74 | 1019.1 |
| 20260831200937 | 25 | 328 | 4.8 | 6.4 | 0.00 | 0.00 | 0.00 | 72 | 1019.1 |
| 20260831195927 | 25 | 177 | 1.6 | 3.2 | 0.00 | 0.00 | 0.00 | 73 | 1018.9 |
| 20260831194849 | 25 | 0.0 | 1.6 | 0.00 | 0.00 | 0.00 | 74 | 1019.2 | |
| 20260831193821 | 25 | 224 | 3.2 | 6.4 | 0.00 | 0.00 | 0.00 | 70 | 1019.2 |
| 20260831192814 | 25 | 190 | 1.6 | 3.2 | 0.00 | 0.00 | 0.00 | 70 | 1019.7 |
| 20260831191748 | 26 | 176 | 1.6 | 1.6 | 0.00 | 0.00 | 0.00 | 68 | 1019.5 |
| 20260831190659 | 25 | 176 | 0.0 | 3.2 | 0.00 | 0.00 | 0.00 | 71 | 1019.8 |
| 20260831185633 | 26 | 0.0 | 1.6 | 0.00 | 0.00 | 0.00 | 70 | 1019.5 | |
| 20260831185117 | 25 | 188 | 1.6 | 3.2 | 0.00 | 0.00 | 0.00 | 69 | 1019.7 |
| 20260831184047 | 26 | 236 | 4.8 | 6.4 | 0.00 | 0.00 | 0.00 | 69 | 1019.9 |
| 20260831183018 | 25 | 195 | 3.2 | 3.2 | 0.00 | 0.00 | 0.00 | 68 | 1019.6 |
| 20260831181953 | 26 | 191 | 0.0 | 1.6 | 0.00 | 0.00 | 0.00 | 67 | 1019.9 |
| 20260831180948 | 26 | 204 | 3.2 | 3.2 | 0.00 | 0.00 | 0.00 | 65 | 1019.8 |
| 20260831175907 | 25 | 176 | 3.2 | 3.2 | 0.00 | 0.00 | 0.00 | 67 | 1019.9 |
| 20260831174842 | 25 | 205 | 4.8 | 6.4 | 0.00 | 0.00 | 0.00 | 68 | 1019.9 |
| 20260831173841 | 26 | 169 | 1.6 | 1.6 | 0.00 | 0.00 | 0.00 | 66 | 1019.9 |
| 20260831172751 | 26 | 193 | 1.6 | 4.8 | 0.00 | 0.00 | 0.00 | 67 | 1019.8 |
| 20260831171723 | 26 | 186 | 1.6 | 3.2 | 0.00 | 0.00 | 0.00 | 68 | 1019.9 |
| 20260831170653 | 26 | 301 | 4.8 | 6.4 | 0.00 | 0.00 | 0.00 | 69 | 1019.9 |
| 20260831165628 | 25 | 176 | 1.6 | 4.8 | 0.00 | 0.00 | 0.00 | 71 | 1019.9 |
| 20260831165117 | 26 | 0.0 | 1.6 | 0.00 | 0.00 | 0.00 | 68 | 1019.8 | |
| 20260831164048 | 25 | 141 | 3.2 | 3.2 | 0.00 | 0.00 | 0.00 | 70 | 1019.8 |
| 20260831163023 | 25 | 175 | 3.2 | 4.8 | 0.00 | 0.00 | 0.00 | 70 | 1020.0 |
| 20260831161954 | 24 | 248 | 6.4 | 6.4 | 0.00 | 0.00 | 0.00 | 73 | 1020.2 |
| 20260831160925 | 24 | 223 | 4.8 | 4.8 | 0.00 | 0.00 | 0.00 | 75 | 1020.2 |
| 20260831155856 | 23 | 0.0 | 3.2 | 0.00 | 0.00 | 0.00 | 76 | 1020.1 | |
| 20260831154827 | 23 | 0.0 | 1.6 | 0.00 | 0.00 | 0.00 | 74 | 1020.4 | |
| 20260831153802 | 23 | 264 | 3.2 | 4.8 | 0.00 | 0.00 | 0.00 | 76 | 1020.1 |
| 20260831152733 | 23 | 0.0 | 0.0 | 0.00 | 0.00 | 0.00 | 78 | 1020.1 | |
| 20260831151708 | 22 | 158 | 1.6 | 3.2 | 0.00 | 0.00 | 0.00 | 79 | 1020.2 |
| 20260831150703 | 23 | 0.0 | 0.0 | 0.00 | 0.00 | 0.00 | 77 | 1020.2 | |
| 20260831145618 | 23 | 0.0 | 1.6 | 0.00 | 0.00 | 0.00 | 77 | 1020.2 | |
| 20260831145120 | 22 | 0.0 | 1.6 | 0.00 | 0.00 | 0.00 | 79 | 1020.5 | |
| 20260831144031 | 22 | 0.0 | 1.6 | 0.00 | 0.00 | 0.00 | 78 | 1020.6 | |
| 20260831143002 | 23 | 0.0 | 1.6 | 0.00 | 0.00 | 0.00 | 77 | 1020.7 | |
| 20260831141953 | 22 | 0.0 | 0.0 | 0.00 | 0.00 | 0.00 | 78 | 1020.6 | |
| 20260831140903 | 22 | 87 | 1.6 | 1.6 | 0.00 | 0.00 | 0.00 | 78 | 1020.2 |
| 20260831135834 | 23 | 120 | 0.0 | 1.6 | 0.00 | 0.00 | 0.00 | 76 | 1020.4 |
| 20260831134805 | 23 | 165 | 1.6 | 3.2 | 0.00 | 0.00 | 0.00 | 76 | 1020.4 |
| 20260831133736 | 23 | 129 | 0.0 | 1.6 | 0.00 | 0.00 | 0.00 | 77 | 1020.2 |
| 20260831132727 | 23 | 0.0 | 3.2 | 0.00 | 0.00 | 0.00 | 76 | 1020.0 | |
| 20260831131638 | 22 | 48 | 1.6 | 6.4 | 0.00 | 0.00 | 0.00 | 77 | 1020.2 |
| 20260831131116 | 22 | 0.0 | 0.0 | 0.00 | 0.00 | 0.00 | 80 | 1020.4 | |
| 20260831130047 | 22 | 0.0 | 3.2 | 0.00 | 0.00 | 0.00 | 81 | 1020.2 | |
| 20260831125022 | 22 | 0.0 | 0.0 | 0.00 | 0.00 | 0.00 | 80 | 1020.4 | |
| 20260831124013 | 22 | 0.0 | 0.0 | 0.00 | 0.00 | 0.00 | 83 | 1020.2 | |
| 20260831122924 | 22 | 0.0 | 0.0 | 0.00 | 0.00 | 0.00 | 83 | 1020.0 | |
| 20260831121856 | 21 | 178 | 4.8 | 4.8 | 0.00 | 0.00 | 0.00 | 84 | 1020.1 |
| 20260831120851 | 21 | 0.0 | 0.0 | 0.00 | 0.00 | 0.00 | 85 | 1020.1 | |
| 20260831115802 | 21 | 0.0 | 1.6 | 0.00 | 0.00 | 0.00 | 84 | 1020.0 | |
| 20260831114736 | 21 | 0.0 | 0.0 | 0.00 | 0.00 | 0.00 | 84 | 1020.0 | |
| 20260831113708 | 21 | 0.0 | 1.6 | 0.00 | 0.00 | 0.00 | 84 | 1019.9 | |
| 20260831113146 | 21 | 0.0 | 0.0 | 0.00 | 0.00 | 0.00 | 84 | 1019.9 | |
| 20260831112117 | 21 | 0.0 | 1.6 | 0.00 | 0.00 | 0.00 | 84 | 1019.8 | |
| 20260831111052 | 21 | 0.0 | 0.0 | 0.00 | 0.00 | 0.00 | 85 | 1019.4 | |
| 20260831110023 | 21 | 0.0 | 0.0 | 0.00 | 0.00 | 0.00 | 84 | 1019.4 | |
| 20260831104958 | 21 | 0.0 | 0.0 | 0.00 | 0.00 | 0.00 | 85 | 1019.6 | |
| 20260831103929 | 21 | 0.0 | 0.0 | 0.00 | 0.00 | 0.00 | 84 | 1019.5 | |
| 20260831102904 | 21 | 0.0 | 0.0 | 0.00 | 0.00 | 0.00 | 85 | 1019.3 | |
| 20260831101835 | 21 | 0.0 | 0.0 | 0.00 | 0.00 | 0.00 | 86 | 1019.5 | |
| 20260831100830 | 21 | 0.0 | 0.0 | 0.00 | 0.00 | 0.00 | 86 | 1019.1 | |
| 20260831095805 | 21 | 0.0 | 0.0 | 0.00 | 0.00 | 0.00 | 86 | 1018.9 | |
| 20260831094716 | 21 | 151 | 1.6 | 1.6 | 0.00 | 0.00 | 0.00 | 87 | 1019.0 |
| 20260831094202 | 21 | 0.0 | 1.6 | 0.00 | 0.00 | 0.00 | 88 | 1018.8 | |
| 20260831093213 | 21 | 0.0 | 0.0 | 0.00 | 0.00 | 0.00 | 89 | 1018.5 | |
| 20260831092104 | 21 | 0.0 | 0.0 | 0.00 | 0.00 | 0.00 | 90 | 1018.6 | |
| 20260831091035 | 21 | 163 | 1.6 | 3.2 | 0.00 | 0.00 | 0.00 | 92 | 1018.6 |
| 20260831090005 | 21 | 133 | 1.6 | 1.6 | 0.00 | 0.00 | 0.00 | 92 | 1018.7 |
| 20260831084940 | 21 | 0.0 | 0.0 | 0.00 | 0.00 | 0.00 | 93 | 1018.6 | |
| 20260831083956 | 21 | 0.0 | 0.0 | 0.00 | 0.00 | 0.00 | 94 | 1018.7 | |
| 20260831082846 | 21 | 0.0 | 0.0 | 0.00 | 0.00 | 0.00 | 94 | 1018.8 | |
| 20260831081822 | 21 | 0.0 | 0.0 | 0.00 | 0.00 | 0.00 | 94 | 1018.9 | |
| 20260831080753 | 21 | 0.0 | 0.0 | 0.00 | 0.00 | 0.00 | 94 | 1018.6 | |
| 20260831075724 | 21 | 0.0 | 0.0 | 0.00 | 0.00 | 0.00 | 93 | 1018.7 | |
| 20260831074659 | 21 | 0.0 | 0.0 | 0.00 | 0.00 | 0.00 | 94 | 1018.8 | |
| 20260831074145 | 21 | 0.0 | 0.0 | 0.00 | 0.00 | 0.00 | 94 | 1018.7 | |
| 20260831073115 | 21 | 181 | 1.6 | 1.6 | 0.00 | 0.00 | 0.00 | 94 | 1018.6 |
| 20260831072046 | 21 | 0.0 | 1.6 | 0.00 | 0.00 | 0.00 | 94 | 1018.7 | |
| 20260831071025 | 21 | 0.0 | 0.0 | 0.00 | 0.00 | 0.00 | 93 | 1018.7 | |
| 20260831065955 | 21 | 0.0 | 0.0 | 0.00 | 0.00 | 0.00 | 93 | 1018.7 | |
| 20260831064947 | 21 | 0.0 | 1.6 | 0.00 | 0.00 | 0.00 | 93 | 1018.8 | |
| 20260831063901 | 21 | 201 | 1.6 | 3.2 | 0.00 | 0.00 | 0.00 | 93 | 1019.1 |